Location: Ferchesar
(52.6477°N, 12.4298°E)
Time: 17:02:41
(UTC+01:00)

Vanguard 1 Rocket - All Passes

Search period start: 26 February 2021 00:00
Search period end: 08 March 2021 00:00
Orbit: 654 x 4222 km, 34.3° (Epoch: 25 February)

Date Brightness Start Highest point End Pass type
(mag) Time Alt. Az. Time Alt. Az. Time Alt. Az.
26 Feb - 00:33:50 10° S 00:51:47 26° SE 01:08:58 10° E visible
26 Feb - 02:57:10 10° SW 03:20:00 42° SSE 03:38:02 10° ESE visible
26 Feb - 05:26:21 10° WSW 05:48:39 43° SSW 06:03:17 10° SE visible
26 Feb - 07:59:07 10° W 08:14:46 27° SW 08:25:05 10° SSE daylight
26 Feb - 23:25:52 10° SSE 23:39:20 18° SE 23:53:05 10° E visible
27 Feb - 01:45:00 10° SSW 02:06:28 37° SSE 02:25:34 10° E visible
27 Feb - 04:12:03 10° WSW 04:35:28 46° S 04:52:19 10° ESE visible
27 Feb - 06:43:19 10° W 07:03:06 36° SSW 07:15:52 10° SSE daylight
27 Feb - 09:19:27 10° W 09:27:17 14° SW 09:33:30 10° SSW daylight
28 Feb - 00:34:12 10° SSW 00:53:15 30° SE 01:12:04 10° E visible
28 Feb - 02:58:37 10° SW 03:21:51 45° S 03:40:40 10° ESE visible
28 Feb - 05:28:12 10° WSW 05:50:36 42° SSW 06:05:43 10° SE visible
28 Feb - 08:01:32 10° W 08:16:28 24° SW 08:26:48 10° S daylight
28 Feb - 23:25:08 10° S 23:40:37 22° SE 23:56:59 10° E visible
01 Mar - 01:46:15 10° SW 02:08:09 41° SSE 02:28:14 10° E visible
01 Mar - 04:13:49 10° WSW 04:37:23 46° S 04:54:49 10° ESE visible
01 Mar - 06:45:24 10° W 07:04:53 33° SSW 07:17:58 10° SSE daylight
01 Mar - 09:24:21 10° WSW 09:28:45 11° WSW 09:32:39 10° SW daylight
01 Mar - 22:19:33 10° SSE 22:28:42 14° ESE 22:38:29 10° E visible
02 Mar - 00:35:04 10° SSW 00:54:44 34° SSE 01:14:52 10° E visible
02 Mar - 03:00:18 10° WSW 03:23:41 46° S 03:43:11 10° ESE visible
02 Mar - 05:30:09 10° W 05:52:27 41° SSW 06:08:00 10° SE visible
02 Mar - 08:04:12 10° W 08:18:02 21° SW 08:28:08 10° S daylight
02 Mar - 23:25:19 10° S 23:41:55 26° SE 00:00:14 10° E visible
03 Mar - 01:47:46 10° SW 02:09:51 44° SSE 02:30:46 10° ESE visible
03 Mar - 04:15:43 10° WSW 04:39:15 46° S 04:57:12 10° SE visible
03 Mar - 06:47:37 10° W 07:06:33 30° SW 07:19:49 10° SSE daylight
03 Mar - 22:17:49 10° SSE 22:29:50 18° SE 22:43:25 10° E visible
04 Mar - 00:36:19 10° SSW 00:56:16 38° SSE 01:17:28 10° E visible
04 Mar - 03:02:09 10° WSW 03:25:30 48° S 03:45:36 10° ESE visible
04 Mar - 05:32:14 10° W 05:54:12 39° SSW 06:10:07 10° SE visible
04 Mar - 08:07:20 10° W 08:19:27 18° SW 08:28:53 10° SSW daylight
04 Mar - 23:26:06 10° SSW 23:43:15 30° SE 00:03:05 10° E visible
05 Mar - 01:49:31 10° SW 02:11:34 46° SSE 02:33:11 10° ESE visible
05 Mar - 04:17:45 10° WSW 04:41:03 45° SSW 04:59:27 10° SE visible
05 Mar - 06:50:02 10° W 07:08:04 27° SW 07:21:21 10° S daylight
05 Mar - 22:17:34 10° S 22:31:03 22° SE 22:47:04 10° E visible
06 Mar - 00:37:53 10° SW 00:57:51 41° SSE 01:19:54 10° E visible
06 Mar - 03:04:09 10° WSW 03:27:17 48° S 03:47:53 10° ESE visible
06 Mar - 05:34:25 10° W 05:55:49 36° SSW 06:12:00 10° SSE visible
06 Mar - 08:11:18 10° W 08:20:44 14° WSW 08:28:39 10° SSW daylight
06 Mar - 21:12:51 10° SE 21:19:38 12° ESE 21:27:11 10° ESE visible
06 Mar - 23:27:21 10° SSW 23:44:41 34° SE 00:05:39 10° E visible
07 Mar - 01:51:28 10° WSW 02:13:18 47° S 02:35:29 10° ESE visible
07 Mar - 04:19:53 10° W 04:42:46 43° SSW 05:01:31 10° SE visible
07 Mar - 06:52:43 10° W 07:09:28 24° SW 07:22:28 10° S daylight
07 Mar - 22:18:09 10° S 22:32:19 25° SE 22:50:06 10° E visible
